Year,Month,Day,Hour,Minute,Value (Times are PST for temperature in C)
2017,06,20,00,00,15.70
2017,06,20,00,01,15.70
2017,06,20,00,02,15.70
2017,06,20,00,03,15.70
2017,06,20,00,04,15.60
2017,06,20,00,05,15.60
2017,06,20,00,06,15.60
2017,06,20,00,07,15.60
2017,06,20,00,08,15.50
2017,06,20,00,09,15.50
2017,06,20,00,10,15.50
2017,06,20,00,11,15.40
2017,06,20,00,12,15.40
2017,06,20,00,13,15.40
2017,06,20,00,14,15.30
2017,06,20,00,15,15.30
2017,06,20,00,16,15.30
2017,06,20,00,17,15.30
2017,06,20,00,18,15.30
2017,06,20,00,19,15.30
2017,06,20,00,20,15.30
2017,06,20,00,21,15.20
2017,06,20,00,22,15.20
2017,06,20,00,23,15.20
2017,06,20,00,24,15.20
2017,06,20,00,25,15.20
2017,06,20,00,26,15.20
2017,06,20,00,27,15.20
2017,06,20,00,28,15.20
2017,06,20,00,29,15.20
2017,06,20,00,30,15.20
2017,06,20,00,31,15.20
2017,06,20,00,32,15.10
2017,06,20,00,33,15.10
2017,06,20,00,34,15.10
2017,06,20,00,35,15.00
2017,06,20,00,36,15.00
2017,06,20,00,37,14.90
2017,06,20,00,38,14.80
2017,06,20,00,39,14.80
2017,06,20,00,40,14.80
2017,06,20,00,41,14.80
2017,06,20,00,42,14.70
2017,06,20,00,43,14.70
2017,06,20,00,44,14.70
2017,06,20,00,45,14.70
2017,06,20,00,46,14.60
2017,06,20,00,47,14.60
2017,06,20,00,48,14.60
2017,06,20,00,49,14.60
2017,06,20,00,50,14.60
2017,06,20,00,51,14.50
2017,06,20,00,52,14.50
2017,06,20,00,53,14.50
2017,06,20,00,54,14.50
2017,06,20,00,55,14.50
2017,06,20,00,56,14.50
2017,06,20,00,57,14.40
2017,06,20,00,58,14.40
2017,06,20,00,59,14.40
2017,06,20,01,00,14.40
2017,06,20,01,01,14.40
2017,06,20,01,02,14.30
2017,06,20,01,03,14.30
2017,06,20,01,04,14.30
2017,06,20,01,05,14.20
2017,06,20,01,06,14.20
2017,06,20,01,07,14.20
2017,06,20,01,08,14.20
2017,06,20,01,09,14.20
2017,06,20,01,10,14.10
2017,06,20,01,11,14.10
2017,06,20,01,12,14.10
2017,06,20,01,13,14.00
2017,06,20,01,14,14.00
2017,06,20,01,15,14.00
2017,06,20,01,16,14.00
2017,06,20,01,17,14.00
2017,06,20,01,18,14.00
2017,06,20,01,19,14.00
2017,06,20,01,20,13.90
2017,06,20,01,21,13.90
2017,06,20,01,22,13.90
2017,06,20,01,23,13.90
2017,06,20,01,24,13.90
2017,06,20,01,25,13.90
2017,06,20,01,26,13.90
2017,06,20,01,27,13.90
2017,06,20,01,28,13.90
2017,06,20,01,29,13.90
2017,06,20,01,30,13.90
2017,06,20,01,31,13.90
2017,06,20,01,32,13.90
2017,06,20,01,33,13.90
2017,06,20,01,34,14.00
2017,06,20,01,35,14.00
2017,06,20,01,36,14.00
2017,06,20,01,37,14.00
2017,06,20,01,38,14.00
2017,06,20,01,39,14.00
2017,06,20,01,40,14.00
2017,06,20,01,41,14.00
2017,06,20,01,42,14.00
2017,06,20,01,43,14.00
2017,06,20,01,44,14.10
2017,06,20,01,45,14.10
2017,06,20,01,46,14.10
2017,06,20,01,47,14.10
2017,06,20,01,48,14.10
2017,06,20,01,49,14.10
2017,06,20,01,50,14.20
2017,06,20,01,51,14.10
2017,06,20,01,52,14.10
2017,06,20,01,53,14.10
2017,06,20,01,54,14.10
2017,06,20,01,55,14.10
2017,06,20,01,56,14.10
2017,06,20,01,57,14.10
2017,06,20,01,58,14.10
2017,06,20,01,59,14.10
2017,06,20,02,00,14.10
2017,06,20,02,01,14.10
2017,06,20,02,02,14.10
2017,06,20,02,03,14.10
2017,06,20,02,04,14.10
2017,06,20,02,05,14.10
2017,06,20,02,06,14.10
2017,06,20,02,07,14.10
2017,06,20,02,08,14.10
2017,06,20,02,09,14.10
2017,06,20,02,10,14.10
2017,06,20,02,11,14.20
2017,06,20,02,12,14.20
2017,06,20,02,13,14.20
2017,06,20,02,14,14.20
2017,06,20,02,15,14.20
2017,06,20,02,16,14.20
2017,06,20,02,17,14.20
2017,06,20,02,18,14.20
2017,06,20,02,19,14.20
2017,06,20,02,20,14.20
2017,06,20,02,21,14.20
2017,06,20,02,22,14.20
2017,06,20,02,23,14.20
2017,06,20,02,24,14.20
2017,06,20,02,25,14.20
2017,06,20,02,26,14.20
2017,06,20,02,27,14.20
2017,06,20,02,28,14.20
2017,06,20,02,29,14.20
2017,06,20,02,30,14.20
2017,06,20,02,31,14.20
2017,06,20,02,32,14.20
2017,06,20,02,33,14.20
2017,06,20,02,34,14.20
2017,06,20,02,35,14.20
2017,06,20,02,36,14.20
2017,06,20,02,37,14.20
2017,06,20,02,38,14.20
2017,06,20,02,39,14.20
2017,06,20,02,40,14.20
2017,06,20,02,41,14.20
2017,06,20,02,42,14.20
2017,06,20,02,43,14.30
2017,06,20,02,44,14.30
2017,06,20,02,45,14.30
2017,06,20,02,46,14.30
2017,06,20,02,47,14.30
2017,06,20,02,48,14.30
2017,06,20,02,49,14.30
2017,06,20,02,50,14.30
2017,06,20,02,51,14.30
2017,06,20,02,52,14.30
2017,06,20,02,53,14.30
2017,06,20,02,54,14.40
2017,06,20,02,55,14.40
2017,06,20,02,56,14.40
2017,06,20,02,57,14.30
2017,06,20,02,58,14.30
2017,06,20,02,59,14.40
2017,06,20,03,00,14.40
2017,06,20,03,01,14.40
2017,06,20,03,02,14.40
2017,06,20,03,03,14.40
2017,06,20,03,04,14.40
2017,06,20,03,05,14.40
2017,06,20,03,06,14.40
2017,06,20,03,07,14.40
2017,06,20,03,08,14.40
2017,06,20,03,09,14.50
2017,06,20,03,10,14.50
2017,06,20,03,11,14.50
2017,06,20,03,12,14.50
2017,06,20,03,13,14.50
2017,06,20,03,14,14.60
2017,06,20,03,15,14.60
2017,06,20,03,16,14.60
2017,06,20,03,17,14.60
2017,06,20,03,18,14.60
2017,06,20,03,19,14.60
2017,06,20,03,20,14.70
2017,06,20,03,21,14.70
2017,06,20,03,22,14.70
2017,06,20,03,23,14.70
2017,06,20,03,24,14.70
2017,06,20,03,25,14.70
2017,06,20,03,26,14.70
2017,06,20,03,27,14.70
2017,06,20,03,28,14.70
2017,06,20,03,29,14.70
2017,06,20,03,30,14.70
2017,06,20,03,31,14.70
2017,06,20,03,32,14.70
2017,06,20,03,33,14.70
2017,06,20,03,34,14.70
2017,06,20,03,35,14.70
2017,06,20,03,36,14.70
2017,06,20,03,37,14.70
2017,06,20,03,38,14.70
2017,06,20,03,39,14.70
2017,06,20,03,40,14.70
2017,06,20,03,41,14.70
2017,06,20,03,42,14.70
2017,06,20,03,43,14.80
2017,06,20,03,44,14.80
2017,06,20,03,45,14.80
2017,06,20,03,46,14.80
2017,06,20,03,47,14.80
2017,06,20,03,48,14.80
2017,06,20,03,49,14.80
2017,06,20,03,50,14.80
2017,06,20,03,51,14.80
2017,06,20,03,52,14.80
2017,06,20,03,53,14.80
2017,06,20,03,54,14.70
2017,06,20,03,55,14.70
2017,06,20,03,56,14.70
2017,06,20,03,57,14.70
2017,06,20,03,58,14.70
2017,06,20,03,59,14.60
2017,06,20,04,00,14.60
2017,06,20,04,01,14.60
2017,06,20,04,02,14.60
2017,06,20,04,03,14.60
2017,06,20,04,04,14.60
2017,06,20,04,05,14.60
2017,06,20,04,06,14.60
2017,06,20,04,07,14.60
2017,06,20,04,08,14.60
2017,06,20,04,09,14.60
2017,06,20,04,10,14.60
2017,06,20,04,11,14.60
2017,06,20,04,12,14.60
2017,06,20,04,13,14.60
2017,06,20,04,14,14.60
2017,06,20,04,15,14.60
2017,06,20,04,16,14.60
2017,06,20,04,17,14.50
2017,06,20,04,18,14.50
2017,06,20,04,19,14.50
2017,06,20,04,20,14.50
2017,06,20,04,21,14.50
2017,06,20,04,22,14.50
2017,06,20,04,23,14.50
2017,06,20,04,24,14.50
2017,06,20,04,25,14.50
2017,06,20,04,26,14.50
2017,06,20,04,27,14.50
2017,06,20,04,28,14.50
2017,06,20,04,29,14.50
2017,06,20,04,30,14.50
2017,06,20,04,31,14.50
2017,06,20,04,32,14.50
2017,06,20,04,33,14.50
2017,06,20,04,34,14.50
2017,06,20,04,35,14.50
2017,06,20,04,36,14.50
2017,06,20,04,37,14.50
2017,06,20,04,38,14.50
2017,06,20,04,39,14.50
2017,06,20,04,40,14.50
2017,06,20,04,41,14.50
2017,06,20,04,42,14.50
2017,06,20,04,43,14.40
2017,06,20,04,44,14.40
2017,06,20,04,45,14.40
2017,06,20,04,46,14.40
2017,06,20,04,47,14.40
2017,06,20,04,48,14.40
2017,06,20,04,49,14.40
2017,06,20,04,50,14.40
2017,06,20,04,51,14.40
2017,06,20,04,52,14.40
2017,06,20,04,53,14.40
2017,06,20,04,54,14.40
2017,06,20,04,55,14.40
2017,06,20,04,56,14.40
2017,06,20,04,57,14.40
2017,06,20,04,58,14.40
2017,06,20,04,59,14.40
2017,06,20,05,00,14.40
2017,06,20,05,01,14.40
2017,06,20,05,02,14.40
2017,06,20,05,03,14.40
2017,06,20,05,04,14.40
2017,06,20,05,05,14.40
2017,06,20,05,06,14.40
2017,06,20,05,07,14.40
2017,06,20,05,08,14.40
2017,06,20,05,09,14.40
2017,06,20,05,10,14.40
2017,06,20,05,11,14.40
2017,06,20,05,12,14.40
2017,06,20,05,13,14.30
2017,06,20,05,14,14.30
2017,06,20,05,15,14.30
2017,06,20,05,16,14.30
2017,06,20,05,17,14.30
2017,06,20,05,18,14.30
2017,06,20,05,19,14.30
2017,06,20,05,20,14.30
2017,06,20,05,21,14.30
2017,06,20,05,22,14.30
2017,06,20,05,23,14.20
2017,06,20,05,24,14.20
2017,06,20,05,25,14.20
2017,06,20,05,26,14.20
2017,06,20,05,27,14.20
2017,06,20,05,28,14.20
2017,06,20,05,29,14.20
2017,06,20,05,30,14.20
2017,06,20,05,31,14.20
2017,06,20,05,32,14.20
2017,06,20,05,33,14.30
2017,06,20,05,34,14.30
2017,06,20,05,35,14.30
2017,06,20,05,36,14.30
2017,06,20,05,37,14.30
2017,06,20,05,38,14.30
2017,06,20,05,39,14.30
2017,06,20,05,40,14.40
2017,06,20,05,41,14.40
2017,06,20,05,42,14.40
2017,06,20,05,43,14.40
2017,06,20,05,44,14.40
2017,06,20,05,45,14.40
2017,06,20,05,46,14.50
2017,06,20,05,47,14.50
2017,06,20,05,48,14.50
2017,06,20,05,49,14.50
2017,06,20,05,50,14.50
2017,06,20,05,51,14.60
2017,06,20,05,52,14.60
2017,06,20,05,53,14.60
2017,06,20,05,54,14.60
2017,06,20,05,55,14.70
2017,06,20,05,56,14.70
2017,06,20,05,57,14.70
2017,06,20,05,58,14.80
2017,06,20,05,59,14.80
2017,06,20,06,00,14.80
2017,06,20,06,01,14.80
2017,06,20,06,02,14.80
2017,06,20,06,03,14.80
2017,06,20,06,04,14.80
2017,06,20,06,05,14.80
2017,06,20,06,06,14.80
2017,06,20,06,07,14.80
2017,06,20,06,08,14.80
2017,06,20,06,09,14.80
2017,06,20,06,10,14.80
2017,06,20,06,11,14.80
2017,06,20,06,12,14.80
2017,06,20,06,13,14.80
2017,06,20,06,14,14.80
2017,06,20,06,15,14.80
2017,06,20,06,16,14.80
2017,06,20,06,17,14.80
2017,06,20,06,18,14.80
2017,06,20,06,19,14.80
2017,06,20,06,20,14.80
2017,06,20,06,21,14.80
2017,06,20,06,22,14.90
2017,06,20,06,23,14.90
2017,06,20,06,24,14.90
2017,06,20,06,25,14.90
2017,06,20,06,26,14.90
2017,06,20,06,27,14.90
2017,06,20,06,28,15.00
2017,06,20,06,29,15.00
2017,06,20,06,30,15.00
2017,06,20,06,31,15.10
2017,06,20,06,32,15.10
2017,06,20,06,33,15.10
2017,06,20,06,34,15.10
2017,06,20,06,35,15.10
2017,06,20,06,36,15.10
2017,06,20,06,37,15.20
2017,06,20,06,38,15.20
2017,06,20,06,39,15.20
2017,06,20,06,40,15.20
2017,06,20,06,41,15.20
2017,06,20,06,42,15.30
2017,06,20,06,43,15.30
2017,06,20,06,44,15.30
2017,06,20,06,45,15.30
2017,06,20,06,46,15.30
2017,06,20,06,47,15.30
2017,06,20,06,48,15.30
2017,06,20,06,49,15.40
2017,06,20,06,50,15.50
2017,06,20,06,51,15.50
2017,06,20,06,52,15.50
2017,06,20,06,53,15.60
2017,06,20,06,54,15.60
2017,06,20,06,55,15.70
2017,06,20,06,56,15.70
2017,06,20,06,57,15.70
2017,06,20,06,58,15.80
2017,06,20,06,59,15.80
2017,06,20,07,00,15.80
2017,06,20,07,01,15.80
2017,06,20,07,02,15.80
2017,06,20,07,03,15.90
2017,06,20,07,04,15.90
2017,06,20,07,05,15.90
2017,06,20,07,06,16.10
2017,06,20,07,07,16.10
2017,06,20,07,08,16.10
2017,06,20,07,09,16.10
2017,06,20,07,10,16.10
2017,06,20,07,11,16.10
2017,06,20,07,12,16.10
2017,06,20,07,13,16.10
2017,06,20,07,14,16.10
2017,06,20,07,15,16.10
2017,06,20,07,16,16.10
2017,06,20,07,17,16.20
2017,06,20,07,18,16.20
2017,06,20,07,19,16.20
2017,06,20,07,20,16.30
2017,06,20,07,21,16.30
2017,06,20,07,22,16.30
2017,06,20,07,23,16.40
2017,06,20,07,24,16.40
2017,06,20,07,25,16.40
2017,06,20,07,26,16.40
2017,06,20,07,27,16.40
2017,06,20,07,28,16.40
2017,06,20,07,29,16.40
2017,06,20,07,30,16.50
2017,06,20,07,31,16.60
2017,06,20,07,32,16.60
2017,06,20,07,33,16.70
2017,06,20,07,34,16.70
2017,06,20,07,35,16.70
2017,06,20,07,36,16.70
2017,06,20,07,37,16.70
2017,06,20,07,38,16.80
2017,06,20,07,39,16.80
2017,06,20,07,40,16.90
2017,06,20,07,41,17.00
2017,06,20,07,42,17.00
2017,06,20,07,43,17.10
2017,06,20,07,44,17.20
2017,06,20,07,45,17.30
2017,06,20,07,46,17.40
2017,06,20,07,47,17.50
2017,06,20,07,48,17.70
2017,06,20,07,49,17.80
2017,06,20,07,50,17.90
2017,06,20,07,51,18.10
2017,06,20,07,52,18.20
2017,06,20,07,53,18.30
2017,06,20,07,54,18.40
2017,06,20,07,55,18.60
2017,06,20,07,56,18.70
2017,06,20,07,57,18.80
2017,06,20,07,58,18.90
2017,06,20,07,59,18.90
2017,06,20,08,00,19.00
2017,06,20,08,01,19.10
2017,06,20,08,02,19.10
2017,06,20,08,03,19.10
2017,06,20,08,04,19.10
2017,06,20,08,05,19.20
2017,06,20,08,06,19.20
2017,06,20,08,07,19.20
2017,06,20,08,08,19.20
2017,06,20,08,09,19.20
2017,06,20,08,10,19.20
2017,06,20,08,11,19.20
2017,06,20,08,12,19.20
2017,06,20,08,13,19.20
2017,06,20,08,14,19.20
2017,06,20,08,15,19.20
2017,06,20,08,16,19.20
2017,06,20,08,17,19.20
2017,06,20,08,18,19.20
2017,06,20,08,19,19.20
2017,06,20,08,20,19.20
2017,06,20,08,21,19.20
2017,06,20,08,22,19.20
2017,06,20,08,23,19.20
2017,06,20,08,24,19.20
2017,06,20,08,25,19.30
2017,06,20,08,26,19.30
2017,06,20,08,27,19.30
2017,06,20,08,28,19.30
2017,06,20,08,29,19.30
2017,06,20,08,30,19.30
2017,06,20,08,31,19.30
2017,06,20,08,32,19.30
2017,06,20,08,33,19.30
2017,06,20,08,34,19.30
2017,06,20,08,35,19.30
2017,06,20,08,36,19.30
2017,06,20,08,37,19.30
2017,06,20,08,38,19.30
2017,06,20,08,39,19.30
2017,06,20,08,40,19.30
2017,06,20,08,41,19.30
2017,06,20,08,42,19.30
2017,06,20,08,43,19.30
2017,06,20,08,44,19.30
2017,06,20,08,45,19.30
2017,06,20,08,46,19.30
2017,06,20,08,47,19.30
2017,06,20,08,48,19.30
2017,06,20,08,49,19.30
2017,06,20,08,50,19.30
2017,06,20,08,51,19.20
2017,06,20,08,52,19.20
2017,06,20,08,53,19.20
2017,06,20,08,54,19.20
2017,06,20,08,55,19.20
2017,06,20,08,56,19.20
2017,06,20,08,57,19.30
2017,06,20,08,58,19.30
2017,06,20,08,59,19.30
2017,06,20,09,00,19.40
2017,06,20,09,01,19.50
2017,06,20,09,02,19.50
2017,06,20,09,03,19.60
2017,06,20,09,04,19.60
2017,06,20,09,05,19.70
2017,06,20,09,06,19.70
2017,06,20,09,07,19.70
2017,06,20,09,08,19.80
2017,06,20,09,09,19.80
2017,06,20,09,10,19.90
2017,06,20,09,11,19.90
2017,06,20,09,12,19.90
2017,06,20,09,13,19.90
2017,06,20,09,14,20.10
2017,06,20,09,15,20.10
2017,06,20,09,16,20.10
2017,06,20,09,17,20.20
2017,06,20,09,18,20.20
2017,06,20,09,19,20.20
2017,06,20,09,20,20.20
2017,06,20,09,21,20.10
2017,06,20,09,22,20.10
2017,06,20,09,23,20.20
2017,06,20,09,24,20.20
2017,06,20,09,25,20.20
2017,06,20,09,26,20.20
2017,06,20,09,27,20.20
2017,06,20,09,28,20.20
2017,06,20,09,29,20.30
2017,06,20,09,30,20.30
2017,06,20,09,31,20.30
2017,06,20,09,32,20.30
2017,06,20,09,33,20.20
2017,06,20,09,34,20.20
2017,06,20,09,35,20.20
2017,06,20,09,36,20.20
2017,06,20,09,37,20.20
2017,06,20,09,38,20.20
2017,06,20,09,39,20.20
2017,06,20,09,40,20.20
2017,06,20,09,41,20.20
2017,06,20,09,42,20.20
2017,06,20,09,43,20.20
2017,06,20,09,44,20.20
2017,06,20,09,45,20.20
2017,06,20,09,46,20.20
2017,06,20,09,47,20.20
2017,06,20,09,48,20.30
2017,06,20,09,49,20.30
2017,06,20,09,50,20.40
2017,06,20,09,51,20.40
2017,06,20,09,52,20.40
2017,06,20,09,53,20.50
2017,06,20,09,54,20.50
2017,06,20,09,55,20.50
2017,06,20,09,56,20.60
2017,06,20,09,57,20.60
2017,06,20,09,58,20.60
2017,06,20,09,59,20.60
2017,06,20,10,00,20.60
2017,06,20,10,01,20.60
2017,06,20,10,02,20.60
2017,06,20,10,03,20.70
2017,06,20,10,04,20.70
2017,06,20,10,05,20.60
2017,06,20,10,06,20.60
2017,06,20,10,07,20.60
2017,06,20,10,08,20.60
2017,06,20,10,09,20.60
2017,06,20,10,10,20.60
2017,06,20,10,11,20.60
2017,06,20,10,12,20.60
2017,06,20,10,13,20.60
2017,06,20,10,14,20.70
2017,06,20,10,15,20.70
2017,06,20,10,16,20.80
2017,06,20,10,17,20.80
2017,06,20,10,18,20.80
2017,06,20,10,19,20.90
2017,06,20,10,20,20.90
2017,06,20,10,21,20.90
2017,06,20,10,22,21.00
2017,06,20,10,23,21.00
2017,06,20,10,24,21.10
2017,06,20,10,25,21.10
2017,06,20,10,26,21.20
2017,06,20,10,27,21.30
2017,06,20,10,28,21.30
2017,06,20,10,29,21.30
2017,06,20,10,30,21.40
2017,06,20,10,31,21.40
2017,06,20,10,32,21.50
2017,06,20,10,33,21.60
2017,06,20,10,34,21.60
2017,06,20,10,35,21.70
2017,06,20,10,36,21.70
2017,06,20,10,37,21.80
2017,06,20,10,38,21.80
2017,06,20,10,39,21.80
2017,06,20,10,40,21.90
2017,06,20,10,41,21.90
2017,06,20,10,42,21.90
2017,06,20,10,43,21.90
2017,06,20,10,44,21.80
2017,06,20,10,45,21.70
2017,06,20,10,46,21.70
2017,06,20,10,47,21.60
2017,06,20,10,48,21.60
2017,06,20,10,49,21.60
2017,06,20,10,50,21.40
2017,06,20,10,51,21.40
2017,06,20,10,52,21.30
2017,06,20,10,53,21.20
2017,06,20,10,54,21.10
2017,06,20,10,55,21.00
2017,06,20,10,56,20.90
2017,06,20,10,57,20.80
2017,06,20,10,58,20.80
2017,06,20,10,59,20.70
2017,06,20,11,00,20.70
2017,06,20,11,01,20.70
2017,06,20,11,02,20.70
2017,06,20,11,03,20.70
2017,06,20,11,04,20.70
2017,06,20,11,05,20.70
2017,06,20,11,06,20.80
2017,06,20,11,07,20.80
2017,06,20,11,08,20.80
2017,06,20,11,09,20.90
2017,06,20,11,10,20.90
2017,06,20,11,11,20.90
2017,06,20,11,12,20.90
2017,06,20,11,13,20.90
2017,06,20,11,14,20.90
2017,06,20,11,15,20.80
2017,06,20,11,16,20.80
2017,06,20,11,17,20.70
2017,06,20,11,18,20.70
2017,06,20,11,19,20.70
2017,06,20,11,20,20.60
2017,06,20,11,21,20.60
2017,06,20,11,22,20.50
2017,06,20,11,23,20.50
2017,06,20,11,24,20.50
2017,06,20,11,25,20.40
2017,06,20,11,26,20.40
2017,06,20,11,27,20.50
2017,06,20,11,28,20.60
2017,06,20,11,29,20.60
2017,06,20,11,30,20.70
2017,06,20,11,31,20.70
2017,06,20,11,32,20.80
2017,06,20,11,33,20.90
2017,06,20,11,34,20.90
2017,06,20,11,35,20.90
2017,06,20,11,36,20.90
2017,06,20,11,37,20.90
2017,06,20,11,38,20.90
2017,06,20,11,39,20.90
2017,06,20,11,40,20.90
2017,06,20,11,41,20.90
2017,06,20,11,42,20.90
2017,06,20,11,43,20.90
2017,06,20,11,44,20.90
2017,06,20,11,45,20.90
2017,06,20,11,46,20.90
2017,06,20,11,47,20.80
2017,06,20,11,48,20.80
2017,06,20,11,49,20.90
2017,06,20,11,50,20.90
2017,06,20,11,51,20.90
2017,06,20,11,52,21.00
2017,06,20,11,53,21.00
2017,06,20,11,54,21.00
2017,06,20,11,55,21.10
2017,06,20,11,56,21.20
2017,06,20,11,57,21.20
2017,06,20,11,58,21.30
2017,06,20,11,59,21.30
2017,06,20,12,00,21.30
2017,06,20,12,01,21.30
2017,06,20,12,02,21.30
2017,06,20,12,03,21.30
2017,06,20,12,04,21.30
2017,06,20,12,05,21.40
2017,06,20,12,06,21.50
2017,06,20,12,07,21.60
2017,06,20,12,08,21.60
2017,06,20,12,09,21.70
2017,06,20,12,10,21.70
2017,06,20,12,11,21.70
2017,06,20,12,12,21.70
2017,06,20,12,13,21.70
2017,06,20,12,14,21.70
2017,06,20,12,15,21.70
2017,06,20,12,16,21.70
2017,06,20,12,17,21.70
2017,06,20,12,18,21.70
2017,06,20,12,19,21.70
2017,06,20,12,20,21.70
2017,06,20,12,21,21.70
2017,06,20,12,22,21.70
2017,06,20,12,23,21.70
2017,06,20,12,24,21.70
2017,06,20,12,25,21.70
2017,06,20,12,26,21.80
2017,06,20,12,27,21.80
2017,06,20,12,28,21.80
2017,06,20,12,29,21.80
2017,06,20,12,30,21.80
2017,06,20,12,31,21.70
2017,06,20,12,32,21.60
2017,06,20,12,33,21.60
2017,06,20,12,34,21.60
2017,06,20,12,35,21.60
2017,06,20,12,36,21.40
2017,06,20,12,37,21.30
2017,06,20,12,38,21.10
2017,06,20,12,39,21.10
2017,06,20,12,40,21.10
2017,06,20,12,41,21.10
2017,06,20,12,42,21.10
2017,06,20,12,43,21.00
2017,06,20,12,44,21.00
2017,06,20,12,45,21.00
2017,06,20,12,46,21.00
2017,06,20,12,47,21.00
2017,06,20,12,48,21.10
2017,06,20,12,49,21.10
2017,06,20,12,50,21.10
2017,06,20,12,51,21.00
2017,06,20,12,52,21.00
2017,06,20,12,53,21.00
2017,06,20,12,54,21.00
2017,06,20,12,55,21.00
2017,06,20,12,56,21.00
2017,06,20,12,57,21.00
2017,06,20,12,58,21.00
2017,06,20,12,59,21.00
2017,06,20,13,00,21.00
2017,06,20,13,01,21.00
2017,06,20,13,02,21.00
2017,06,20,13,03,21.00
2017,06,20,13,04,21.00
2017,06,20,13,05,21.10
2017,06,20,13,06,21.10
2017,06,20,13,07,21.00
2017,06,20,13,08,21.00
2017,06,20,13,09,21.00
2017,06,20,13,10,20.90
2017,06,20,13,11,20.90
2017,06,20,13,12,20.90
2017,06,20,13,13,20.90
2017,06,20,13,14,20.90
2017,06,20,13,15,20.90
2017,06,20,13,16,20.90
2017,06,20,13,17,20.80
2017,06,20,13,18,20.80
2017,06,20,13,19,20.80
2017,06,20,13,20,20.80
2017,06,20,13,21,20.80
2017,06,20,13,22,20.80
2017,06,20,13,23,20.80
2017,06,20,13,24,20.80
2017,06,20,13,25,20.80
2017,06,20,13,26,20.80
2017,06,20,13,27,20.80
2017,06,20,13,28,20.90
2017,06,20,13,29,20.90
2017,06,20,13,30,20.80
2017,06,20,13,31,20.80
2017,06,20,13,32,20.90
2017,06,20,13,33,20.90
2017,06,20,13,34,20.90
2017,06,20,13,35,20.80
2017,06,20,13,36,20.80
2017,06,20,13,37,20.80
2017,06,20,13,38,20.80
2017,06,20,13,39,20.80
2017,06,20,13,40,20.70
2017,06,20,13,41,20.70
2017,06,20,13,42,20.70
2017,06,20,13,43,20.70
2017,06,20,13,44,20.70
2017,06,20,13,45,20.70
2017,06,20,13,46,20.60
2017,06,20,13,47,20.60
2017,06,20,13,48,20.50
2017,06,20,13,49,20.50
2017,06,20,13,50,20.50
2017,06,20,13,51,20.50
2017,06,20,13,52,20.50
2017,06,20,13,53,20.50
2017,06,20,13,54,20.50
2017,06,20,13,55,20.50
2017,06,20,13,56,20.50
2017,06,20,13,57,20.50
2017,06,20,13,58,20.50
2017,06,20,13,59,20.60
2017,06,20,14,00,20.60
2017,06,20,14,01,20.60
2017,06,20,14,02,20.60
2017,06,20,14,03,20.60
2017,06,20,14,04,20.50
2017,06,20,14,05,20.50
2017,06,20,14,06,20.50
2017,06,20,14,07,20.40
2017,06,20,14,08,20.30
2017,06,20,14,09,20.30
2017,06,20,14,10,20.20
2017,06,20,14,11,20.20
2017,06,20,14,12,20.10
2017,06,20,14,13,20.00
2017,06,20,14,14,19.90
2017,06,20,14,15,20.00
2017,06,20,14,16,20.10
2017,06,20,14,17,20.10
2017,06,20,14,18,20.20
2017,06,20,14,19,20.20
2017,06,20,14,20,20.10
2017,06,20,14,21,20.10
2017,06,20,14,22,20.00
2017,06,20,14,23,19.90
2017,06,20,14,24,19.90
2017,06,20,14,25,19.90
2017,06,20,14,26,19.90
2017,06,20,14,27,19.80
2017,06,20,14,28,19.70
2017,06,20,14,29,19.70
2017,06,20,14,30,19.60
2017,06,20,14,31,19.60
2017,06,20,14,32,19.50
2017,06,20,14,33,19.50
2017,06,20,14,34,19.50
2017,06,20,14,35,19.60
2017,06,20,14,36,19.60
2017,06,20,14,37,19.60
2017,06,20,14,38,19.70
2017,06,20,14,39,19.70
2017,06,20,14,40,19.80
2017,06,20,14,41,19.80
2017,06,20,14,42,19.80
2017,06,20,14,43,19.80
2017,06,20,14,44,19.80
2017,06,20,14,45,19.70
2017,06,20,14,46,19.70
2017,06,20,14,47,19.70
2017,06,20,14,48,19.70
2017,06,20,14,49,19.70
2017,06,20,14,50,19.70
2017,06,20,14,51,19.70
2017,06,20,14,52,19.70
2017,06,20,14,53,19.70
2017,06,20,14,54,19.70
2017,06,20,14,55,19.70
2017,06,20,14,56,19.70
2017,06,20,14,57,19.70
2017,06,20,14,58,19.60
2017,06,20,14,59,19.60
2017,06,20,15,00,19.50
2017,06,20,15,01,19.50
2017,06,20,15,02,19.50
2017,06,20,15,03,19.50
2017,06,20,15,04,19.40
2017,06,20,15,05,19.40
2017,06,20,15,06,19.30
2017,06,20,15,07,19.30
2017,06,20,15,08,19.30
2017,06,20,15,09,19.30
2017,06,20,15,10,19.30
2017,06,20,15,11,19.30
2017,06,20,15,12,19.30
2017,06,20,15,13,19.30
2017,06,20,15,14,19.30
2017,06,20,15,15,19.30
2017,06,20,15,16,19.30
2017,06,20,15,17,19.30
2017,06,20,15,18,19.30
2017,06,20,15,19,19.20
2017,06,20,15,20,19.20
2017,06,20,15,21,19.30
2017,06,20,15,22,19.30
2017,06,20,15,23,19.40
2017,06,20,15,24,19.40
2017,06,20,15,25,19.40
2017,06,20,15,26,19.50
2017,06,20,15,27,19.50
2017,06,20,15,28,19.60
2017,06,20,15,29,19.70
2017,06,20,15,30,19.70
2017,06,20,15,31,19.80
2017,06,20,15,32,19.80
2017,06,20,15,33,19.80
2017,06,20,15,34,19.80
2017,06,20,15,35,19.80
2017,06,20,15,36,19.70
2017,06,20,15,37,19.60
2017,06,20,15,38,19.60
2017,06,20,15,39,19.60
2017,06,20,15,40,19.60
2017,06,20,15,41,19.60
2017,06,20,15,42,19.60
2017,06,20,15,43,19.60
2017,06,20,15,44,19.60
2017,06,20,15,45,19.70
2017,06,20,15,46,19.70
2017,06,20,15,47,19.70
2017,06,20,15,48,19.80
2017,06,20,15,49,19.80
2017,06,20,15,50,19.80
2017,06,20,15,51,19.80
2017,06,20,15,52,19.70
2017,06,20,15,53,19.70
2017,06,20,15,54,19.60
2017,06,20,15,55,19.60
2017,06,20,15,56,19.50
2017,06,20,15,57,19.50
2017,06,20,15,58,19.50
2017,06,20,15,59,19.50
2017,06,20,16,00,19.50
2017,06,20,16,01,19.60
2017,06,20,16,02,19.50
2017,06,20,16,03,19.50
2017,06,20,16,04,19.40
2017,06,20,16,05,19.40
2017,06,20,16,06,19.30
2017,06,20,16,07,19.30
2017,06,20,16,08,19.20
2017,06,20,16,09,19.20
2017,06,20,16,10,19.20
2017,06,20,16,11,19.20
2017,06,20,16,12,19.20
2017,06,20,16,13,19.30
2017,06,20,16,14,19.30
2017,06,20,16,15,19.20
2017,06,20,16,16,19.10
2017,06,20,16,17,19.10
2017,06,20,16,18,19.10
2017,06,20,16,19,19.10
2017,06,20,16,20,19.10
2017,06,20,16,21,19.10
2017,06,20,16,22,19.10
2017,06,20,16,23,19.10
2017,06,20,16,24,19.10
2017,06,20,16,25,19.00
2017,06,20,16,26,18.90
2017,06,20,16,27,18.90
2017,06,20,16,28,18.80
2017,06,20,16,29,18.80
2017,06,20,16,30,18.80
2017,06,20,16,31,18.80
2017,06,20,16,32,18.80
2017,06,20,16,33,18.80
2017,06,20,16,34,18.80
2017,06,20,16,35,18.70
2017,06,20,16,36,18.70
2017,06,20,16,37,18.70
2017,06,20,16,38,18.70
2017,06,20,16,39,18.60
2017,06,20,16,40,18.60
2017,06,20,16,41,18.70
2017,06,20,16,42,18.70
2017,06,20,16,43,18.70
2017,06,20,16,44,18.70
2017,06,20,16,45,18.70
2017,06,20,16,46,18.70
2017,06,20,16,47,18.70
2017,06,20,16,48,18.60
2017,06,20,16,49,18.60
2017,06,20,16,50,18.50
2017,06,20,16,51,18.40
2017,06,20,16,52,18.40
2017,06,20,16,53,18.40
2017,06,20,16,54,18.30
2017,06,20,16,55,18.20
2017,06,20,16,56,18.30
2017,06,20,16,57,18.30
2017,06,20,16,58,18.30
2017,06,20,16,59,18.30
2017,06,20,17,00,18.30
2017,06,20,17,01,18.30
2017,06,20,17,02,18.30
2017,06,20,17,03,18.30
2017,06,20,17,04,18.30
2017,06,20,17,05,18.30
2017,06,20,17,06,18.30
2017,06,20,17,07,18.30
2017,06,20,17,08,18.40
2017,06,20,17,09,18.40
2017,06,20,17,10,18.40
2017,06,20,17,11,18.40
2017,06,20,17,12,18.40
2017,06,20,17,13,18.40
2017,06,20,17,14,18.40
2017,06,20,17,15,18.40
2017,06,20,17,16,18.30
2017,06,20,17,17,18.30
2017,06,20,17,18,18.30
2017,06,20,17,19,18.30